Time,TemperatureF,DewpointF,PressureIn,WindDirection,WindDirectionDegrees,WindSpeedMPH,WindSpeedGustMPH,Humidity,HourlyPrecipIn,Conditions,Clouds,dailyrainin,SolarRadiationWatts/m^2,SoftwareType,DateUTC
2013-03-19 00:05:00,33.7,22.4,30.12,North,360,0.0,0.0,63,0.00,,,0.00,0,Wunderground v.1.15,2013-03-19 05:05:00,
2013-03-19 00:10:00,33.5,22.2,30.11,North,360,0.0,0.0,63,0.00,,,0.00,0,Wunderground v.1.15,2013-03-19 05:10:00,
2013-03-19 00:15:00,33.4,22.1,30.11,North,360,0.0,0.0,63,0.00,,,0.00,0,Wunderground v.1.15,2013-03-19 05:15:00,
2013-03-19 00:25:00,33.4,22.1,30.11,North,360,0.0,0.0,63,0.00,,,0.00,0,Wunderground v.1.15,2013-03-19 05:25:00,
2013-03-19 00:30:00,33.5,22.2,30.11,North,360,0.0,0.0,63,0.00,,,0.00,0,Wunderground v.1.15,2013-03-19 05:30:00,
2013-03-19 00:35:00,33.5,21.9,30.11,North,360,0.0,0.0,62,0.00,,,0.00,0,Wunderground v.1.15,2013-03-19 05:35:00,
2013-03-19 00:40:00,33.5,21.9,30.11,North,360,0.0,0.0,62,0.00,,,0.00,0,Wunderground v.1.15,2013-03-19 05:40:00,
2013-03-19 00:50:00,33.5,21.5,30.11,North,360,0.0,0.0,61,0.00,,,0.00,0,Wunderground v.1.15,2013-03-19 05:50:00,
2013-03-19 00:55:00,33.3,21.3,30.10,North,360,0.0,0.0,61,0.00,,,0.00,0,Wunderground v.1.15,2013-03-19 05:55:00,
2013-03-19 01:05:00,33.4,21.0,30.11,North,360,0.0,3.0,60,0.00,,,0.00,0,Wunderground v.1.15,2013-03-19 06:05:00,
2013-03-19 01:10:00,33.3,20.9,30.11,North,360,0.0,0.0,60,0.00,,,0.00,0,Wunderground v.1.15,2013-03-19 06:10:00,
2013-03-19 01:20:00,32.6,21.4,30.13,North,360,0.0,5.0,63,0.00,,,0.00,0,Wunderground v.1.15,2013-03-19 06:20:00,
2013-03-19 01:30:00,32.6,21.0,30.13,North,360,0.0,0.0,62,0.00,,,0.00,0,Wunderground v.1.15,2013-03-19 06:30:00,
2013-03-19 01:35:00,32.8,20.8,30.14,North,360,0.0,0.0,61,0.00,,,0.00,0,Wunderground v.1.15,2013-03-19 06:35:00,
2013-03-19 01:40:00,33.0,20.6,30.14,North,360,0.0,6.0,60,0.00,,,0.00,0,Wunderground v.1.15,2013-03-19 06:40:00,
2013-03-19 01:50:00,33.1,20.7,30.15,North,360,1.0,1.0,60,0.00,,,0.00,0,Wunderground v.1.15,2013-03-19 06:50:00,
2013-03-19 02:00:00,33.0,21.0,30.15,North,360,0.0,0.0,61,0.00,,,0.00,0,Wunderground v.1.15,2013-03-19 07:00:00,
2013-03-19 02:05:00,33.0,21.0,30.14,North,360,0.0,0.0,61,0.00,,,0.00,0,Wunderground v.1.15,2013-03-19 07:05:00,
2013-03-19 02:15:00,32.8,21.2,30.13,North,360,0.0,0.0,62,0.00,,,0.00,0,Wunderground v.1.15,2013-03-19 07:15:00,
2013-03-19 02:25:00,32.8,21.2,30.14,North,360,0.0,0.0,62,0.00,,,0.00,0,Wunderground v.1.15,2013-03-19 07:25:00,
2013-03-19 02:30:00,32.6,21.0,30.14,North,360,0.0,6.0,62,0.00,,,0.00,0,Wunderground v.1.15,2013-03-19 07:30:00,
2013-03-19 02:40:00,33.0,20.2,30.12,North,360,1.0,1.0,59,0.00,,,0.00,0,Wunderground v.1.15,2013-03-19 07:40:00,
2013-03-19 02:45:00,33.2,20.0,30.12,North,360,0.0,1.0,58,0.00,,,0.00,0,Wunderground v.1.15,2013-03-19 07:45:00,
2013-03-19 02:55:00,32.9,20.1,30.13,North,360,0.0,4.0,59,0.00,,,0.00,0,Wunderground v.1.15,2013-03-19 07:55:00,
2013-03-19 03:01:00,32.7,19.5,30.13,North,360,0.0,0.0,58,0.00,,,0.00,0,Wunderground v.1.15,2013-03-19 08:01:00,
2013-03-19 03:10:00,33.0,19.8,30.14,North,360,0.0,0.0,58,0.00,,,0.00,0,Wunderground v.1.15,2013-03-19 08:10:00,
2013-03-19 03:20:00,32.8,20.0,30.14,North,360,0.0,0.0,59,0.00,,,0.00,0,Wunderground v.1.15,2013-03-19 08:20:00,
2013-03-19 03:25:00,32.9,20.1,30.14,North,360,0.0,0.0,59,0.00,,,0.00,0,Wunderground v.1.15,2013-03-19 08:25:00,
2013-03-19 03:30:00,33.1,19.9,30.14,North,360,0.0,0.0,58,0.00,,,0.00,0,Wunderground v.1.15,2013-03-19 08:30:00,
2013-03-19 03:40:00,33.4,19.8,30.14,North,360,1.0,7.0,57,0.00,,,0.00,0,Wunderground v.1.15,2013-03-19 08:40:00,
2013-03-19 03:45:00,33.5,19.5,30.14,North,360,1.0,1.0,56,0.00,,,0.00,0,Wunderground v.1.15,2013-03-19 08:45:00,
2013-03-19 03:50:00,33.5,19.5,30.14,North,360,1.0,1.0,56,0.00,,,0.00,0,Wunderground v.1.15,2013-03-19 08:50:00,
2013-03-19 04:00:00,33.5,19.9,30.14,North,360,0.0,0.0,57,0.00,,,0.00,0,Wunderground v.1.15,2013-03-19 09:00:00,
2013-03-19 04:05:00,33.4,20.2,30.14,North,360,0.0,0.0,58,0.00,,,0.00,0,Wunderground v.1.15,2013-03-19 09:05:00,
2013-03-19 04:10:00,33.2,20.0,30.14,North,360,0.0,0.0,58,0.00,,,0.00,0,Wunderground v.1.15,2013-03-19 09:10:00,
2013-03-19 04:20:00,33.1,19.9,30.15,North,360,0.0,0.0,58,0.00,,,0.00,0,Wunderground v.1.15,2013-03-19 09:20:00,
2013-03-19 04:25:00,33.2,20.4,30.14,North,360,1.0,3.0,59,0.00,,,0.00,0,Wunderground v.1.15,2013-03-19 09:25:00,
2013-03-19 04:30:00,33.1,20.3,30.14,North,360,1.0,5.0,59,0.00,,,0.00,0,Wunderground v.1.15,2013-03-19 09:30:00,
2013-03-19 04:40:00,33.1,21.1,30.15,North,360,0.0,6.0,61,0.00,,,0.00,0,Wunderground v.1.15,2013-03-19 09:40:00,
2013-03-19 04:45:00,33.0,21.4,30.15,North,360,0.0,6.0,62,0.00,,,0.00,0,Wunderground v.1.15,2013-03-19 09:45:00,
2013-03-19 04:55:00,33.0,21.0,30.16,North,360,0.0,0.0,61,0.00,,,0.00,0,Wunderground v.1.15,2013-03-19 09:55:00,
2013-03-19 05:05:00,33.5,19.9,30.15,North,360,0.0,4.0,57,0.00,,,0.00,0,Wunderground v.1.15,2013-03-19 10:05:00,
2013-03-19 05:15:00,33.7,20.1,30.15,North,360,1.0,5.0,57,0.00,,,0.00,0,Wunderground v.1.15,2013-03-19 10:15:00,
2013-03-19 05:20:00,33.6,20.0,30.15,North,360,0.0,0.0,57,0.00,,,0.00,0,Wunderground v.1.15,2013-03-19 10:20:00,
2013-03-19 05:30:00,33.4,20.2,30.15,North,360,0.0,0.0,58,0.00,,,0.00,0,Wunderground v.1.15,2013-03-19 10:30:00,
2013-03-19 05:35:00,33.4,20.2,30.15,North,360,0.0,0.0,58,0.00,,,0.00,0,Wunderground v.1.15,2013-03-19 10:35:00,
2013-03-19 05:45:00,33.3,20.5,30.16,North,360,0.0,0.0,59,0.00,,,0.00,0,Wunderground v.1.15,2013-03-19 10:45:00,
2013-03-19 05:55:00,33.3,20.5,30.17,North,360,0.0,0.0,59,0.00,,,0.00,0,Wunderground v.1.15,2013-03-19 10:55:00,
2013-03-19 06:00:00,33.4,21.0,30.17,North,360,0.0,0.0,60,0.00,,,0.00,0,Wunderground v.1.15,2013-03-19 11:00:00,
2013-03-19 06:05:00,33.4,20.6,30.17,North,360,0.0,0.0,59,0.00,,,0.00,0,Wunderground v.1.15,2013-03-19 11:05:00,
2013-03-19 06:15:00,33.3,20.9,30.19,North,360,0.0,0.0,60,0.00,,,0.00,0,Wunderground v.1.15,2013-03-19 11:15:00,
2013-03-19 06:20:00,33.3,21.3,30.18,North,360,0.0,0.0,61,0.00,,,0.00,0,Wunderground v.1.15,2013-03-19 11:20:00,
2013-03-19 06:30:00,33.2,20.8,30.18,North,360,0.0,0.0,60,0.00,,,0.00,0,Wunderground v.1.15,2013-03-19 11:30:00,
2013-03-19 06:35:00,33.3,20.9,30.18,North,360,0.0,0.0,60,0.00,,,0.00,0,Wunderground v.1.15,2013-03-19 11:35:00,
2013-03-19 06:40:00,33.5,21.1,30.18,North,360,0.0,0.0,60,0.00,,,0.00,0,Wunderground v.1.15,2013-03-19 11:40:00,
2013-03-19 06:50:00,33.6,20.8,30.17,North,360,0.0,0.0,59,0.00,,,0.00,0,Wunderground v.1.15,2013-03-19 11:50:00,
2013-03-19 06:55:00,33.5,20.7,30.17,North,360,0.0,0.0,59,0.00,,,0.00,0,Wunderground v.1.15,2013-03-19 11:55:00,
2013-03-19 07:05:00,33.4,20.6,30.18,North,360,0.0,0.0,59,0.00,,,0.00,0,Wunderground v.1.15,2013-03-19 12:05:00,
2013-03-19 07:10:00,33.5,21.1,30.18,North,360,0.0,0.0,60,0.00,,,0.00,0,Wunderground v.1.15,2013-03-19 12:10:00,
2013-03-19 07:20:00,33.1,21.1,30.19,North,360,0.0,0.0,61,0.00,,,0.00,0,Wunderground v.1.15,2013-03-19 12:20:00,
2013-03-19 07:25:00,33.0,21.0,30.19,North,360,0.0,0.0,61,0.00,,,0.00,0,Wunderground v.1.15,2013-03-19 12:25:00,
2013-03-19 07:30:00,33.1,21.1,30.19,North,360,0.0,0.0,61,0.00,,,0.00,5,Wunderground v.1.15,2013-03-19 12:30:00,
2013-03-19 07:40:00,33.1,21.9,30.20,North,360,0.0,0.0,63,0.00,,,0.00,23,Wunderground v.1.15,2013-03-19 12:40:00,
2013-03-19 07:45:00,32.8,22.0,30.21,North,360,0.0,0.0,64,0.00,,,0.00,21,Wunderground v.1.15,2013-03-19 12:45:00,
2013-03-19 07:55:00,33.0,22.1,30.22,North,360,0.0,0.0,64,0.00,,,0.00,33,Wunderground v.1.15,2013-03-19 12:55:00,
2013-03-19 08:00:00,33.2,22.3,30.22,North,360,0.0,0.0,64,0.00,,,0.00,26,Wunderground v.1.15,2013-03-19 13:00:00,
2013-03-19 08:10:00,33.4,22.1,30.22,North,360,0.0,0.0,63,0.00,,,0.00,42,Wunderground v.1.15,2013-03-19 13:10:00,
2013-03-19 08:15:00,33.4,22.1,30.23,North,360,0.0,0.0,63,0.00,,,0.00,49,Wunderground v.1.15,2013-03-19 13:15:00,
2013-03-19 08:25:00,33.4,22.5,30.23,North,360,0.0,0.0,64,0.00,,,0.00,69,Wunderground v.1.15,2013-03-19 13:25:00,
2013-03-19 08:30:00,33.4,23.3,30.24,North,360,0.0,0.0,66,0.00,,,0.00,88,Wunderground v.1.15,2013-03-19 13:30:00,
2013-03-19 08:35:00,33.4,23.3,30.24,North,360,0.0,0.0,66,0.00,,,0.00,123,Wunderground v.1.15,2013-03-19 13:35:00,
2013-03-19 08:45:00,33.7,22.4,30.24,North,360,0.0,0.0,63,0.00,,,0.00,114,Wunderground v.1.15,2013-03-19 13:45:00,
2013-03-19 08:50:00,33.8,21.8,30.25,North,360,1.0,1.0,61,0.00,,,0.00,120,Wunderground v.1.15,2013-03-19 13:50:00,
2013-03-19 08:55:00,34.0,21.2,30.25,North,360,1.0,1.0,59,0.00,,,0.00,116,Wunderground v.1.15,2013-03-19 13:55:00,
2013-03-19 09:05:00,34.2,20.9,30.25,North,360,0.0,0.0,58,0.00,,,0.00,127,Wunderground v.1.15,2013-03-19 14:05:00,
2013-03-19 09:15:00,34.3,19.4,30.25,North,360,0.0,4.0,54,0.00,,,0.00,139,Wunderground v.1.15,2013-03-19 14:15:00,
2013-03-19 09:20:00,34.2,18.8,30.25,North,360,0.0,4.0,53,0.00,,,0.00,200,Wunderground v.1.15,2013-03-19 14:20:00,
2013-03-19 09:30:00,34.8,19.4,30.26,North,360,0.0,0.0,53,0.00,,,0.00,221,Wunderground v.1.15,2013-03-19 14:30:00,
2013-03-19 09:40:00,34.9,18.6,30.26,North,360,0.0,5.0,51,0.00,,,0.00,230,Wunderground v.1.15,2013-03-19 14:40:00,
2013-03-19 09:45:00,34.9,18.6,30.26,North,360,0.0,5.0,51,0.00,,,0.00,209,Wunderground v.1.15,2013-03-19 14:45:00,
2013-03-19 09:50:00,35.1,18.8,30.27,North,360,0.0,3.0,51,0.00,,,0.00,202,Wunderground v.1.15,2013-03-19 14:50:00,
2013-03-19 09:55:00,35.1,18.8,30.27,North,360,0.0,3.0,51,0.00,,,0.00,197,Wunderground v.1.15,2013-03-19 14:55:00,
2013-03-19 10:05:00,35.1,18.8,30.27,North,360,1.0,3.0,51,0.00,,,0.00,216,Wunderground v.1.15,2013-03-19 15:05:00,
2013-03-19 10:15:00,35.2,17.9,30.27,North,360,2.0,7.0,49,0.00,,,0.00,234,Wunderground v.1.15,2013-03-19 15:15:00,
2013-03-19 10:20:00,35.5,18.2,30.27,North,360,1.0,1.0,49,0.00,,,0.00,230,Wunderground v.1.15,2013-03-19 15:20:00,
2013-03-19 10:25:00,35.6,18.3,30.27,North,360,0.0,3.0,49,0.00,,,0.00,243,Wunderground v.1.15,2013-03-19 15:25:00,
2013-03-19 10:35:00,35.9,18.6,30.28,North,360,1.0,6.0,49,0.00,,,0.00,269,Wunderground v.1.15,2013-03-19 15:35:00,
2013-03-19 10:45:00,36.4,19.0,30.28,North,360,1.0,5.0,49,0.00,,,0.00,288,Wunderground v.1.15,2013-03-19 15:45:00,
2013-03-19 10:50:00,36.5,18.2,30.28,North,360,1.0,1.0,47,0.00,,,0.00,306,Wunderground v.1.15,2013-03-19 15:50:00,
2013-03-19 10:55:00,36.7,18.3,30.28,North,360,0.0,5.0,47,0.00,,,0.00,288,Wunderground v.1.15,2013-03-19 15:55:00,
2013-03-19 11:05:00,37.1,16.1,30.28,North,360,2.0,6.0,42,0.00,,,0.00,288,Wunderground v.1.15,2013-03-19 16:05:00,
2013-03-19 11:10:00,37.1,16.6,30.28,North,360,1.0,6.0,43,0.00,,,0.00,278,Wunderground v.1.15,2013-03-19 16:10:00,
2013-03-19 11:20:00,37.4,16.4,30.29,North,360,2.0,2.0,42,0.00,,,0.00,332,Wunderground v.1.15,2013-03-19 16:20:00,
2013-03-19 11:30:00,37.5,15.9,30.29,North,360,1.0,1.0,41,0.00,,,0.00,362,Wunderground v.1.15,2013-03-19 16:30:00,
2013-03-19 11:35:00,37.8,15.6,30.29,North,360,2.0,2.0,40,0.00,,,0.00,345,Wunderground v.1.15,2013-03-19 16:35:00,
2013-03-19 11:45:00,37.7,15.5,30.29,North,360,2.0,9.0,40,0.00,,,0.00,364,Wunderground v.1.15,2013-03-19 16:45:00,
2013-03-19 11:50:00,37.9,16.3,30.29,North,360,2.0,2.0,41,0.00,,,0.00,371,Wunderground v.1.15,2013-03-19 16:50:00,
2013-03-19 12:00:00,38.2,15.4,30.29,North,360,2.0,6.0,39,0.00,,,0.00,378,Wunderground v.1.15,2013-03-19 17:00:00,
2013-03-19 12:10:00,38.4,14.4,30.29,North,360,0.0,4.0,37,0.00,,,0.00,404,Wunderground v.1.15,2013-03-19 17:10:00,
2013-03-19 12:15:00,38.2,14.2,30.29,North,360,0.0,5.0,37,0.00,,,0.00,397,Wunderground v.1.15,2013-03-19 17:15:00,
2013-03-19 12:25:00,38.7,15.2,30.30,North,360,1.0,4.0,38,0.00,,,0.00,355,Wunderground v.1.15,2013-03-19 17:25:00,
2013-03-19 12:35:00,38.7,14.6,30.29,North,360,0.0,4.0,37,0.00,,,0.00,359,Wunderground v.1.15,2013-03-19 17:35:00,
2013-03-19 12:40:00,38.9,15.4,30.28,North,360,0.0,4.0,38,0.00,,,0.00,376,Wunderground v.1.15,2013-03-19 17:40:00,
2013-03-19 12:45:00,39.6,16.6,30.28,North,360,0.0,4.0,39,0.00,,,0.00,392,Wunderground v.1.15,2013-03-19 17:45:00,
2013-03-19 12:55:00,39.1,16.2,30.28,North,360,0.0,0.0,39,0.00,,,0.00,403,Wunderground v.1.15,2013-03-19 17:55:00,
2013-03-19 13:05:00,39.7,17.9,30.28,North,360,0.0,0.0,41,0.00,,,0.00,367,Wunderground v.1.15,2013-03-19 18:05:00,
2013-03-19 13:10:00,39.7,17.9,30.28,North,360,1.0,1.0,41,0.00,,,0.00,371,Wunderground v.1.15,2013-03-19 18:10:00,
2013-03-19 13:20:00,40.2,18.3,30.28,North,360,0.0,3.0,41,0.00,,,0.00,367,Wunderground v.1.15,2013-03-19 18:20:00,
2013-03-19 13:30:00,40.7,18.8,30.28,North,360,0.0,3.0,41,0.00,,,0.00,422,Wunderground v.1.15,2013-03-19 18:30:00,
2013-03-19 13:40:00,40.3,18.4,30.28,North,360,1.0,6.0,41,0.00,,,0.00,330,Wunderground v.1.15,2013-03-19 18:40:00,
2013-03-19 13:45:00,40.8,19.5,30.29,North,360,1.0,6.0,42,0.00,,,0.00,334,Wunderground v.1.15,2013-03-19 18:45:00,
2013-03-19 13:55:00,40.8,19.5,30.28,NNE,25,2.0,7.0,42,0.00,,,0.00,392,Wunderground v.1.15,2013-03-19 18:55:00,
2013-03-19 14:00:00,40.8,18.9,30.28,NNE,22,2.0,2.0,41,0.00,,,0.00,380,Wunderground v.1.15,2013-03-19 19:00:00,
2013-03-19 14:05:00,41.1,19.7,30.28,North,360,1.0,4.0,42,0.00,,,0.00,360,Wunderground v.1.15,2013-03-19 19:05:00,
2013-03-19 14:15:00,41.0,19.1,30.29,North,360,3.0,10.0,41,0.00,,,0.00,343,Wunderground v.1.15,2013-03-19 19:15:00,
2013-03-19 14:20:00,40.9,19.5,30.29,NNE,25,2.0,2.0,42,0.00,,,0.00,381,Wunderground v.1.15,2013-03-19 19:20:00,
2013-03-19 14:25:00,41.4,20.5,30.28,North,360,3.0,4.0,43,0.00,,,0.00,343,Wunderground v.1.15,2013-03-19 19:25:00,
2013-03-19 14:30:00,41.4,20.0,30.28,North,360,2.0,12.0,42,0.00,,,0.00,362,Wunderground v.1.15,2013-03-19 19:30:00,
2013-03-19 14:40:00,41.4,19.4,30.27,North,360,3.0,3.0,41,0.00,,,0.00,464,Wunderground v.1.15,2013-03-19 19:40:00,
2013-03-19 14:45:00,41.8,19.2,30.27,NNE,22,2.0,9.0,40,0.00,,,0.00,469,Wunderground v.1.15,2013-03-19 19:45:00,
2013-03-19 14:50:00,42.5,20.4,30.26,NNE,24,1.0,1.0,41,0.00,,,0.00,464,Wunderground v.1.15,2013-03-19 19:50:00,
2013-03-19 15:00:00,43.1,19.8,30.26,North,360,3.0,11.0,39,0.00,,,0.00,431,Wunderground v.1.15,2013-03-19 20:00:00,
2013-03-19 15:05:00,42.4,17.9,30.26,NNE,24,4.0,11.0,37,0.00,,,0.00,390,Wunderground v.1.15,2013-03-19 20:05:00,
2013-03-19 15:15:00,42.3,17.2,30.26,NNE,29,4.0,12.0,36,0.00,,,0.00,381,Wunderground v.1.15,2013-03-19 20:15:00,
2013-03-19 15:20:00,42.6,18.7,30.27,NNE,26,4.0,12.0,38,0.00,,,0.00,364,Wunderground v.1.15,2013-03-19 20:20:00,
2013-03-19 15:35:00,43.4,18.8,30.27,North,360,2.0,13.0,37,0.00,,,0.00,490,Wunderground v.1.15,2013-03-19 20:35:00,
2013-03-19 15:45:00,43.3,20.0,30.27,North,360,4.0,9.0,39,0.00,,,0.00,276,Wunderground v.1.15,2013-03-19 20:45:00,
2013-03-19 15:50:00,42.9,20.2,30.27,NNE,17,4.0,12.0,40,0.00,,,0.00,246,Wunderground v.1.15,2013-03-19 20:50:00,
2013-03-19 16:00:00,43.7,20.3,30.26,NNE,24,2.0,9.0,39,0.00,,,0.00,322,Wunderground v.1.15,2013-03-19 21:00:00,
2013-03-19 16:10:00,43.6,22.0,30.26,NNE,25,4.0,12.0,42,0.00,,,0.00,357,Wunderground v.1.15,2013-03-19 21:10:00,
2013-03-19 16:20:00,43.4,26.9,30.26,NNE,20,4.0,12.0,52,0.00,,,0.00,339,Wunderground v.1.15,2013-03-19 21:20:00,
2013-03-19 16:30:00,42.9,28.7,30.26,North,360,6.0,6.0,57,0.00,,,0.00,257,Wunderground v.1.15,2013-03-19 21:30:00,
2013-03-19 16:35:00,42.6,28.8,30.26,NNE,25,5.0,16.0,58,0.00,,,0.00,211,Wunderground v.1.15,2013-03-19 21:35:00,
2013-03-19 16:45:00,42.7,30.2,30.27,North,360,4.0,14.0,61,0.00,,,0.00,202,Wunderground v.1.15,2013-03-19 21:45:00,
2013-03-19 16:50:00,42.3,30.6,30.27,NNE,24,6.0,16.0,63,0.00,,,0.00,185,Wunderground v.1.15,2013-03-19 21:50:00,
2013-03-19 17:00:00,41.9,31.4,30.26,NNE,24,7.0,16.0,66,0.00,,,0.00,169,Wunderground v.1.15,2013-03-19 22:00:00,
2013-03-19 17:05:00,41.6,31.4,30.25,NNE,24,9.0,16.0,67,0.00,,,0.00,160,Wunderground v.1.15,2013-03-19 22:05:00,
2013-03-19 17:15:00,41.7,31.2,30.26,NNE,24,7.0,18.0,66,0.00,,,0.00,172,Wunderground v.1.15,2013-03-19 22:15:00,
2013-03-19 17:20:00,41.7,30.8,30.26,North,360,6.0,6.0,65,0.00,,,0.00,174,Wunderground v.1.15,2013-03-19 22:20:00,
2013-03-19 17:25:00,41.6,31.4,30.27,NNE,24,6.0,12.0,67,0.00,,,0.00,167,Wunderground v.1.15,2013-03-19 22:25:00,
2013-03-19 17:35:00,41.7,31.5,30.27,NNE,25,5.0,13.0,67,0.00,,,0.00,167,Wunderground v.1.15,2013-03-19 22:35:00,
2013-03-19 17:40:00,41.5,31.7,30.26,North,360,5.0,5.0,68,0.00,,,0.00,176,Wunderground v.1.15,2013-03-19 22:40:00,
2013-03-19 17:45:00,41.4,31.6,30.26,North,360,5.0,16.0,68,0.00,,,0.00,167,Wunderground v.1.15,2013-03-19 22:45:00,
2013-03-19 17:55:00,41.2,31.4,30.26,NNE,25,6.0,16.0,68,0.00,,,0.00,130,Wunderground v.1.15,2013-03-19 22:55:00,
2013-03-19 18:05:00,40.9,31.9,30.27,North,360,5.0,7.0,70,0.00,,,0.00,123,Wunderground v.1.15,2013-03-19 23:05:00,
2013-03-19 18:10:00,41.0,32.3,30.27,North,360,4.0,14.0,71,0.00,,,0.00,121,Wunderground v.1.15,2013-03-19 23:10:00,
2013-03-19 18:15:00,40.9,32.6,30.27,North,360,4.0,14.0,72,0.00,,,0.00,113,Wunderground v.1.15,2013-03-19 23:15:00,
2013-03-19 18:25:00,40.6,32.6,30.27,North,360,4.0,13.0,73,0.00,,,0.00,62,Wunderground v.1.15,2013-03-19 23:25:00,
2013-03-19 18:35:00,40.2,32.9,30.27,North,360,4.0,12.0,75,0.00,,,0.00,72,Wunderground v.1.15,2013-03-19 23:35:00,
2013-03-19 18:40:00,40.2,33.2,30.27,North,360,3.0,11.0,76,0.00,,,0.00,67,Wunderground v.1.15,2013-03-19 23:40:00,
2013-03-19 18:50:00,40.2,33.6,30.26,North,360,2.0,11.0,77,0.00,,,0.00,47,Wunderground v.1.15,2013-03-19 23:50:00,
2013-03-19 18:55:00,40.0,33.7,30.26,North,360,2.0,11.0,78,0.00,,,0.00,39,Wunderground v.1.15,2013-03-19 23:55:00,
2013-03-19 19:00:00,39.9,33.6,30.26,North,360,1.0,9.0,78,0.00,,,0.00,30,Wunderground v.1.15,2013-03-20 00:00:00,
2013-03-19 19:10:00,39.6,33.6,30.27,North,360,2.0,9.0,79,0.00,,,0.00,19,Wunderground v.1.15,2013-03-20 00:10:00,
2013-03-19 19:20:00,39.4,33.7,30.27,North,360,0.0,5.0,80,0.00,,,0.00,11,Wunderground v.1.15,2013-03-20 00:20:00,
2013-03-19 19:30:00,39.1,33.5,30.27,North,360,1.0,5.0,80,0.00,,,0.00,5,Wunderground v.1.15,2013-03-20 00:30:00,
2013-03-19 19:35:00,39.0,33.7,30.28,North,360,2.0,11.0,81,0.00,,,0.00,0,Wunderground v.1.15,2013-03-20 00:35:00,
2013-03-19 19:40:00,38.8,33.5,30.28,North,360,2.0,2.0,81,0.00,,,0.00,0,Wunderground v.1.15,2013-03-20 00:40:00,
2013-03-19 19:45:00,38.6,33.6,30.28,North,360,1.0,6.0,82,0.00,,,0.00,0,Wunderground v.1.15,2013-03-20 00:45:00,
2013-03-19 19:50:00,38.5,33.5,30.28,North,360,0.0,5.0,82,0.00,,,0.00,0,Wunderground v.1.15,2013-03-20 00:50:00,
2013-03-19 20:00:00,38.2,33.5,30.28,North,360,0.0,4.0,83,0.00,,,0.00,0,Wunderground v.1.15,2013-03-20 01:00:00,
2013-03-19 20:10:00,37.8,33.1,30.28,North,360,1.0,1.0,83,0.00,,,0.00,0,Wunderground v.1.15,2013-03-20 01:10:00,
2013-03-19 20:15:00,37.7,33.3,30.28,North,360,0.0,1.0,84,0.00,,,0.00,0,Wunderground v.1.15,2013-03-20 01:15:00,
2013-03-19 20:25:00,37.4,33.0,30.27,North,360,0.0,0.0,84,0.00,,,0.00,0,Wunderground v.1.15,2013-03-20 01:25:00,
2013-03-19 20:35:00,37.1,33.0,30.28,North,360,0.0,0.0,85,0.00,,,0.00,0,Wunderground v.1.15,2013-03-20 01:35:00,
2013-03-19 20:40:00,37.0,32.9,30.28,North,360,0.0,0.0,85,0.00,,,0.00,0,Wunderground v.1.15,2013-03-20 01:40:00,
2013-03-19 20:45:00,36.9,32.8,30.28,North,360,0.0,0.0,85,0.00,,,0.00,0,Wunderground v.1.15,2013-03-20 01:45:00,
2013-03-19 20:55:00,36.7,32.9,30.29,North,360,0.0,0.0,86,0.00,,,0.00,0,Wunderground v.1.15,2013-03-20 01:55:00,
2013-03-19 21:05:00,36.6,32.8,30.29,North,360,0.0,4.0,86,0.00,,,0.00,0,Wunderground v.1.15,2013-03-20 02:05:00,
2013-03-19 21:10:00,36.5,32.7,30.29,North,360,0.0,5.0,86,0.00,,,0.00,0,Wunderground v.1.15,2013-03-20 02:10:00,
2013-03-19 21:20:00,36.5,32.7,30.30,NNE,30,0.0,0.0,86,0.00,,,0.00,0,Wunderground v.1.15,2013-03-20 02:20:00,
2013-03-19 21:30:00,36.6,34.5,30.29,NNE,30,3.0,7.0,92,0.00,,,0.00,0,Wunderground v.1.15,2013-03-20 02:30:00,
2013-03-19 21:40:00,36.8,33.3,30.28,NNE,30,1.0,1.0,87,0.00,,,0.00,0,Wunderground v.1.15,2013-03-20 02:40:00,
2013-03-19 21:45:00,36.9,33.4,30.29,NNE,30,1.0,6.0,87,0.00,,,0.00,0,Wunderground v.1.15,2013-03-20 02:45:00,
2013-03-19 21:55:00,36.8,33.3,30.29,NNE,30,1.0,5.0,87,0.00,,,0.00,0,Wunderground v.1.15,2013-03-20 02:55:00,
2013-03-19 22:05:00,36.5,33.0,30.29,NNE,30,0.0,5.0,87,0.00,,,0.00,0,Wunderground v.1.15,2013-03-20 03:05:00,
2013-03-19 22:10:00,36.4,32.9,30.29,NNE,30,0.0,0.0,87,0.00,,,0.00,0,Wunderground v.1.15,2013-03-20 03:10:00,
2013-03-19 22:15:00,36.4,33.2,30.29,NNE,30,0.0,6.0,88,0.00,,,0.00,0,Wunderground v.1.15,2013-03-20 03:15:00,
2013-03-19 22:25:00,36.6,33.1,30.30,North,360,1.0,6.0,87,0.00,,,0.00,0,Wunderground v.1.15,2013-03-20 03:25:00,
2013-03-19 22:35:00,36.5,33.3,30.29,North,360,2.0,9.0,88,0.00,,,0.00,0,Wunderground v.1.15,2013-03-20 03:35:00,
2013-03-19 22:45:00,36.4,32.9,30.29,North,360,1.0,6.0,87,0.00,,,0.00,0,Wunderground v.1.15,2013-03-20 03:45:00,
2013-03-19 22:50:00,36.3,33.1,30.29,NNE,30,1.0,1.0,88,0.00,,,0.00,0,Wunderground v.1.15,2013-03-20 03:50:00,
2013-03-19 22:55:00,36.3,33.1,30.29,NNE,30,1.0,7.0,88,0.00,,,0.00,0,Wunderground v.1.15,2013-03-20 03:55:00,
2013-03-19 23:00:00,36.3,33.1,30.29,NNE,30,1.0,1.0,88,0.00,,,0.00,0,Wunderground v.1.15,2013-03-20 04:00:00,
2013-03-19 23:05:00,36.2,33.0,30.29,NNE,30,1.0,4.0,88,0.00,,,0.00,0,Wunderground v.1.15,2013-03-20 04:05:00,
2013-03-19 23:15:00,36.1,32.9,30.29,NNE,30,1.0,7.0,88,0.00,,,0.00,0,Wunderground v.1.15,2013-03-20 04:15:00,
2013-03-19 23:20:00,36.0,33.1,30.29,NNE,30,1.0,5.0,89,0.00,,,0.00,0,Wunderground v.1.15,2013-03-20 04:20:00,
2013-03-19 23:25:00,36.0,33.1,30.28,NNE,30,1.0,5.0,89,0.00,,,0.00,0,Wunderground v.1.15,2013-03-20 04:25:00,
2013-03-19 23:30:00,36.0,33.1,30.29,NNE,30,0.0,6.0,89,0.00,,,0.00,0,Wunderground v.1.15,2013-03-20 04:30:00,
2013-03-19 23:40:00,36.1,33.2,30.28,NNE,30,0.0,0.0,89,0.00,,,0.00,0,Wunderground v.1.15,2013-03-20 04:40:00,
2013-03-19 23:50:00,36.0,33.1,30.28,NNE,30,0.0,0.0,89,0.00,,,0.00,0,Wunderground v.1.15,2013-03-20 04:50:00,
2013-03-19 23:55:00,35.8,32.9,30.28,NNE,30,0.0,0.0,89,0.00,,,0.00,0,Wunderground v.1.15,2013-03-20 04:55:00,